Meteo Giornale » Osservazioni meteo Norvegia » Oslo-Gardermoen
ore: 21:50 - Osservazioni Meteo Oslo-Gardermoen
Lat. 60° 12' N Lon. 11° 5' E Alt. 20 metri s.l.m.
14 °C
Sereno
Temp. 24 Ore
9 °C
18 °C
Nord
5.5 Km/h
Dew point 11 °C
Umidità 82 %
Visibilità 10 Km
Il sole sorge alle ore 06:10
Il sole tramonta alle ore 20:20
| Data e Ora | Cielo e Fenomeni | T °C | DP °C | Um. % | Pres. hPa | Vis. km | Vento km/h | |
|---|---|---|---|---|---|---|---|---|
| Oggi h: 21:50 | Sereno | 14 | 11 | 82 | 1007 | 10 | N 5.5 | |
| Oggi h: 21:20 | Sereno | 15 | 11 | 76 | 1007 | 10 | S 9.3 | |
| Oggi h: 20:50 | Sereno | 15 | 11 | 76 | 1007 | 10 | N 5.5 | |
| Oggi h: 20:20 | Sereno | 16 | 12 | 77 | 1007 | 10 | SO 9.3 | |
| Oggi h: 19:50 | Sereno | 16 | 12 | 77 | 1007 | 10 | SO 9.3 | |
| Oggi h: 19:20 | Sereno | 17 | 12 | 72 | 1007 | 10 | S/SO 13 | |
| Oggi h: 18:50 | Sereno | 17 | 12 | 72 | 1007 | 10 | S 14.8 | |
| Oggi h: 18:20 | Sereno | 18 | 11 | 63 | 1007 | 10 | S 14.8 | |
| Oggi h: 17:50 | Sereno | 18 | 10 | 59 | 1007 | 10 | S 14.8 | |
| Oggi h: 17:20 | Sereno | 18 | 11 | 63 | 1008 | 10 | S 16.7 | |
| Oggi h: 16:50 | Sereno | 17 | 11 | 67 | 1008 | 10 | S/SO 16.7 | |
| Oggi h: 16:20 | Sereno | 18 | 12 | 67 | 1008 | 10 | S 13 | |
| Oggi h: 15:50 | Sereno | 17 | 12 | 72 | 1008 | 10 | S 13 | |
| Oggi h: 15:20 | Sereno | 17 | 12 | 72 | 1008 | 10 | S/SE 14.8 | |
| Oggi h: 14:50 | Sereno | 17 | 11 | 67 | 1008 | 10 | S 13 | |
| Oggi h: 14:20 | Poco Nuvoloso | 17 | 11 | 67 | 1008 | 10 | S/SE 11.1 | |
| Oggi h: 13:50 | Nuvoloso | 17 | 12 | 72 | 1009 | 10 | S/SE 11.1 | |
| Oggi h: 13:20 | Nuvoloso | 16 | 11 | 72 | 1008 | 10 | N 7.4 | |
| Oggi h: 12:50 | Molto Nuvoloso | 16 | 11 | 72 | 1008 | 10 | S 7.4 | |
| Oggi h: 12:20 | Molto Nuvoloso | 15 | 11 | 76 | 1008 | 10 | N 5.5 | |
| Oggi h: 11:50 | Molto Nuvoloso | 15 | 11 | 76 | 1008 | 10 | N 3.7 | |
| Oggi h: 11:20 | Molto Nuvoloso | 14 | 11 | 82 | 1008 | 10 | N 3.7 | |
| Oggi h: 10:50 | Molto Nuvoloso | 13 | 11 | 87 | 1009 | 10 | N 3.7 | |
| Oggi h: 10:20 | Molto Nuvoloso | 13 | 10 | 81 | 1008 | 10 | N 3.7 | |
| Oggi h: 09:50 | Molto Nuvoloso | 13 | 10 | 81 | 1008 | 10 | N 3.7 | |
| Oggi h: 09:20 | Molto Nuvoloso | 12 | 10 | 87 | 1008 | 10 | N 3.7 | |
| Oggi h: 08:50 | Molto Nuvoloso | 11 | 10 | 93 | 1008 | 10 | N 1.8 | |
| Oggi h: 08:20 | Nebbia nelle vicinanze | 11 | 9 | 87 | 1008 | 10 | N 1.8 | |
| Oggi h: 07:50 | Nebbia nelle vicinanze | 10 | 9 | 93 | 1008 | 10 | N 3.7 | |
| Oggi h: 07:20 | Nebbia nelle vicinanze | 10 | 9 | 93 | 1008 | 10 | N 3.7 | |
| Oggi h: 06:50 | Banco di nebbia | 10 | 8 | 87 | 1007 | 10 | N 3.7 | |
| Oggi h: 06:20 | Nebbia a tratti | 10 | 9 | 93 | 1007 | 0.65 | N 3.7 | |
| Oggi h: 05:50 | Nebbia | 10 | 9 | 93 | 1007 | 0.6 | N 0 | |
| Oggi h: 05:20 | Nebbia | 10 | 9 | 93 | 1007 | 0.6 | N 1.8 | |
| Oggi h: 04:50 | Nebbia a tratti Foschia | 9 | 9 | 100 | 1007 | 0.5 | N 3.7 | |
| Oggi h: 04:20 | Nebbia a tratti | 9 | 8 | 93 | 1007 | 0.5 | N 0 | |
| Oggi h: 03:50 | Nebbia a tratti | 10 | 9 | 93 | 1007 | 0.4 | N 0 | |
| Oggi h: 03:20 | Nebbia a tratti | 10 | 9 | 93 | 1007 | 0.6 | N 7.4 | |
| Oggi h: 02:50 | Sereno | 10 | 9 | 93 | 1007 | 10 | N 7.4 | |
| Oggi h: 02:20 | Poco Nuvoloso | 11 | 9 | 87 | 1007 | 10 | N 3.7 | |
| Oggi h: 01:50 | Sereno | 11 | 9 | 87 | 1007 | 10 | N 3.7 | |
| Oggi h: 01:20 | Sereno | 11 | 9 | 87 | 1006 | 10 | N 3.7 | |
| Oggi h: 00:50 | Sereno | 12 | 10 | 87 | 1006 | 10 | N 1.8 | |
| Oggi h: 00:20 | Sereno | 12 | 10 | 87 | 1006 | 10 | N 0 | |
| Ieri h: 23:50 | Sereno | 13 | 10 | 81 | 1006 | 10 | N 3.7 | |
| Ieri h: 23:20 | Sereno | 12 | 10 | 87 | 1006 | 10 | N 1.8 | |
| Ieri h: 22:50 | Sereno | 14 | 10 | 76 | 1006 | 10 | N 5.5 | |



